SL-3 DEB, 14229

Orbit data source: Space-Track

SL-3 DEB, 14229 is space debris in SSO originally from a launch on Sun, 24 Jul 1983 UTC launched from the Tyuratam Missile And Space Complex (TTMTR). Debris objects in space refer to the collection of defunct objects orbiting the Earth. Examples of debris include non-operational satellites, rocket bodies, and fragments generated from explosions, collisions, or faulty payload assembly.

Loading next visibility...
Identifier
14229, 1983-075D
Orbit
SSO
Country
Flag of CISCIS
Related business
Manufacturer
Unknown
Mission
Spacecraft
Bus & Motor
Unknown
Mass
Unknown
Launch date (UTC)
1983-07-24 (43 years ago)
Launch vehicle
Unknown
Launch site
Tyuratam Missile And Space Complex (TTMTR)
Object type
Payload
Rocket body
Debris
Shape & HBR
Unknown shape, 0.1 m
Radar Cross Section
Medium (>0.1 m² and <1 m²)

Expand to show TLE details & history
Last TLE update: 20 hours ago

TLE from 20 hours ago
0 SL-3 DEB
1 14229U 83075D   26266.59566240  .00001542  00000-0  97327-4 0  9994
2 14229  97.8969 266.0805 0027373 358.0545 126.5573 15.10426560346289
Epoch: 2026-09-23T14:17Z
TLE epoch observation values (Epoch: 2026-09-23T14:17:45.231Z)
Latitude
54.46852°
Longitude
-119.66462°
Altitude
555.22 km
Speed
7.583 km/s
True Right ascension
06h 28m 52s
True Declination
54° 18' 03"
Sunlit
Object was in daylight at epoch
Visualization orbit readout
Latitude
Unknown
Longitude
Unknown
Altitude
Unknown
Speed
Unknown
Apparent Right ascension
Unknown
Apparent Declination
Unknown
Sunlit
N/A
Visualization observer readout
Local Sidereal Time
03:30:41
Azimuth
Unknown
Elevation
Unknown
Doppler factor
Unknown
Orbital elements
Apogee altitude
550.813 km
Perigee altitude
512.983 km
Semi-major axis
6,910.035 km
Eccentricity
0.00274
Inclination
97.8969°
RAAN
266.0805°
Arg. of periapsis
358.0545°
True anomaly
126.80875°
Mean anomaly
126.5573°
Eccentric anomaly
126.68307°
Mean motion
3.77853 °/min
Orbital period
95.28 mins
BSTAR
0.000097327

Documentation

Showing up to 5 results
|